N72DW TXKF-MYAF

Flight info

Callsign N72DW
Flight time N/A
Altitude 40000
Route BDA M329 GRATX/N0403F400 M329 ZQA
Aircraft C25B/M-SDE2E3FGHRWXY/LB1

Departure

Time 2026-04-26 15:56
Airport L.F. Wade International Airport (TXKF)

Arrival

Time N/A
Airport Andros Town Airport (MYAF)
Time Latitude Longitude Altitude Speed Heading
2026-04-26 15:37 32.36489 -64.67004 23 ft 0 kts 146°
2026-04-26 15:50 32.36475 -64.66994 23 ft 3 kts 155°
2026-04-26 15:50 32.36448 -64.66991 24 ft 5 kts 188°
2026-04-26 15:50 32.36412 -64.66998 23 ft 6 kts 209°
2026-04-26 15:50 32.36404 -64.67046 23 ft 7 kts 283°
2026-04-26 15:51 32.36415 -64.67107 22 ft 8 kts 282°
2026-04-26 15:51 32.36426 -64.67179 22 ft 10 kts 282°
2026-04-26 15:51 32.36443 -64.67273 22 ft 13 kts 282°
2026-04-26 15:51 32.36462 -64.67379 23 ft 14 kts 282°
2026-04-26 15:52 32.36482 -64.67492 22 ft 14 kts 282°
2026-04-26 15:52 32.36503 -64.67612 22 ft 15 kts 282°
2026-04-26 15:52 32.36528 -64.67758 22 ft 19 kts 281°
2026-04-26 15:52 32.36544 -64.67862 22 ft 19 kts 280°
2026-04-26 15:53 32.36582 -64.68081 22 ft 21 kts 282°
2026-04-26 15:53 32.36612 -64.68253 22 ft 21 kts 281°
2026-04-26 15:53 32.36642 -64.68423 22 ft 21 kts 281°
2026-04-26 15:53 32.36670 -64.68596 22 ft 22 kts 281°
2026-04-26 15:54 32.36701 -64.68769 22 ft 21 kts 282°
2026-04-26 15:54 32.36710 -64.68913 22 ft 12 kts 250°
2026-04-26 15:54 32.36699 -64.68944 22 ft 0 kts 245°
2026-04-26 15:54 32.36688 -64.68974 23 ft 7 kts 245°
2026-04-26 15:55 32.36661 -64.69045 19 ft 12 kts 246°
2026-04-26 15:55 32.36610 -64.69074 15 ft 8 kts 100°
2026-04-26 15:55 32.36608 -64.69068 15 ft 0 kts 102°
2026-04-26 15:56 32.36597 -64.69006 15 ft 38 kts 101°
2026-04-26 15:56 32.36454 -64.68261 57 ft 141 kts 105°
2026-04-26 15:56 32.36173 -64.66947 704 ft 177 kts 105°
2026-04-26 15:56 32.35871 -64.65609 1921 ft 158 kts 106°
2026-04-26 15:57 32.35577 -64.64294 2518 ft 180 kts 106°
2026-04-26 15:57 32.35053 -64.62867 3122 ft 196 kts 127°
2026-04-26 15:57 32.34113 -64.61713 4064 ft 193 kts 140°
2026-04-26 15:57 32.33392 -64.61077 4545 ft 201 kts 149°
2026-04-26 15:58 32.31579 -64.60130 5243 ft 225 kts 159°
2026-04-26 15:58 32.30099 -64.59396 5867 ft 235 kts 159°
2026-04-26 15:58 32.28478 -64.59133 6478 ft 240 kts 190°
2026-04-26 15:58 32.27052 -64.60042 7062 ft 242 kts 229°
2026-04-26 15:59 32.26226 -64.61778 7731 ft 243 kts 246°
2026-04-26 15:59 32.25517 -64.63602 8441 ft 245 kts 244°
2026-04-26 15:59 32.24743 -64.65403 9164 ft 246 kts 242°
2026-04-26 15:59 32.23937 -64.67185 9903 ft 246 kts 242°
2026-04-26 16:00 32.23132 -64.68972 10588 ft 246 kts 242°
2026-04-26 16:00 32.22334 -64.70766 11274 ft 246 kts 243°
2026-04-26 16:00 32.21537 -64.72558 11969 ft 246 kts 242°
2026-04-26 16:00 32.20738 -64.74342 12676 ft 245 kts 243°
2026-04-26 16:01 32.19944 -64.76128 13393 ft 245 kts 242°
2026-04-26 16:01 32.19147 -64.77897 14093 ft 244 kts 243°
2026-04-26 16:01 32.18329 -64.79748 14318 ft 261 kts 243°
2026-04-26 16:01 32.17477 -64.81637 14918 ft 260 kts 243°
2026-04-26 16:02 32.16644 -64.83510 15451 ft 262 kts 243°
2026-04-26 16:02 32.15787 -64.85414 16012 ft 264 kts 243°
2026-04-26 16:02 32.14930 -64.87339 16533 ft 265 kts 243°
2026-04-26 16:02 32.14640 -64.87988 16714 ft 266 kts 243°
2026-04-26 16:03 32.13188 -64.91223 17581 ft 269 kts 243°
2026-04-26 16:03 32.12306 -64.93183 18109 ft 271 kts 243°
2026-04-26 16:03 32.11424 -64.95153 18586 ft 273 kts 243°
2026-04-26 16:03 32.10542 -64.97113 18990 ft 275 kts 243°
2026-04-26 16:04 32.09644 -64.99117 19412 ft 277 kts 243°
2026-04-26 16:04 32.08734 -65.01136 19815 ft 280 kts 243°
2026-04-26 16:04 32.07817 -65.03179 20221 ft 282 kts 243°
2026-04-26 16:04 32.06892 -65.05232 20621 ft 285 kts 243°
2026-04-26 16:05 32.05959 -65.07304 21031 ft 287 kts 243°
2026-04-26 16:05 32.05339 -65.08684 21290 ft 289 kts 243°
2026-04-26 16:05 32.04388 -65.10785 21691 ft 291 kts 243°
2026-04-26 16:05 32.03436 -65.12905 22077 ft 293 kts 243°
2026-04-26 16:06 32.02161 -65.15727 22589 ft 296 kts 243°
2026-04-26 16:06 32.01506 -65.17181 22862 ft 298 kts 242°
2026-04-26 16:06 32.00526 -65.19341 23239 ft 300 kts 243°
2026-04-26 16:06 31.99544 -65.21520 23615 ft 302 kts 242°
2026-04-26 16:07 31.98550 -65.23712 23940 ft 304 kts 243°
2026-04-26 16:07 31.97553 -65.25920 24261 ft 306 kts 242°
2026-04-26 16:07 31.96545 -65.28138 24585 ft 308 kts 242°
2026-04-26 16:07 31.95538 -65.30369 24898 ft 309 kts 242°
2026-04-26 16:08 31.94519 -65.32608 25211 ft 311 kts 242°
2026-04-26 16:08 31.93513 -65.34833 25529 ft 312 kts 242°
2026-04-26 16:08 31.92485 -65.37090 25836 ft 314 kts 242°
2026-04-26 16:08 31.91454 -65.39367 26151 ft 316 kts 242°
2026-04-26 16:09 31.90412 -65.41652 26465 ft 317 kts 242°
2026-04-26 16:09 31.89370 -65.43951 26779 ft 319 kts 242°
2026-04-26 16:09 31.88316 -65.46257 27081 ft 321 kts 242°
2026-04-26 16:09 31.87264 -65.48576 27426 ft 321 kts 242°
2026-04-26 16:10 31.86207 -65.50888 27821 ft 320 kts 242°
2026-04-26 16:10 31.85158 -65.53195 28214 ft 320 kts 242°
2026-04-26 16:10 31.84103 -65.55501 28606 ft 319 kts 242°
2026-04-26 16:10 31.83055 -65.57803 29016 ft 319 kts 242°
2026-04-26 16:11 31.82005 -65.60096 29441 ft 318 kts 242°
2026-04-26 16:11 31.80961 -65.62384 29867 ft 318 kts 242°
2026-04-26 16:11 31.79928 -65.64640 30277 ft 317 kts 242°
2026-04-26 16:11 31.78884 -65.66924 30655 ft 316 kts 242°
2026-04-26 16:12 31.77843 -65.69195 31045 ft 315 kts 242°
2026-04-26 16:12 31.76805 -65.71462 31436 ft 315 kts 242°
2026-04-26 16:12 31.74731 -65.75982 32248 ft 313 kts 242°
2026-04-26 16:13 31.73699 -65.78231 32670 ft 312 kts 242°
2026-04-26 16:13 31.72667 -65.80475 33098 ft 311 kts 242°
2026-04-26 16:13 31.71640 -65.82714 33530 ft 310 kts 243°
2026-04-26 16:13 31.70616 -65.84936 33980 ft 310 kts 242°
2026-04-26 16:14 31.69606 -65.87137 34387 ft 309 kts 243°
2026-04-26 16:14 31.68586 -65.89346 34800 ft 307 kts 243°
2026-04-26 16:14 31.66405 -65.93626 35623 ft 305 kts 237°
2026-04-26 16:15 31.65219 -65.95679 36055 ft 303 kts 238°
2026-04-26 16:15 31.64059 -65.97740 36504 ft 301 kts 238°
2026-04-26 16:15 31.62898 -65.99784 36958 ft 300 kts 238°
2026-04-26 16:16 31.60582 -66.03821 37897 ft 296 kts 238°
2026-04-26 16:16 31.59430 -66.05829 38381 ft 295 kts 239°
2026-04-26 16:16 31.58307 -66.07796 38846 ft 293 kts 239°
2026-04-26 16:16 31.57168 -66.09781 39235 ft 292 kts 239°
2026-04-26 16:17 31.56031 -66.11763 39612 ft 292 kts 239°
2026-04-26 16:17 31.54899 -66.13738 39992 ft 291 kts 239°
2026-04-26 16:17 31.53757 -66.15728 40114 ft 300 kts 239°
2026-04-26 16:17 31.52569 -66.17801 40124 ft 312 kts 239°
2026-04-26 16:18 31.51335 -66.19945 40137 ft 323 kts 238°
2026-04-26 16:18 31.48761 -66.24418 40137 ft 342 kts 238°
2026-04-26 16:19 31.46033 -66.29155 40138 ft 358 kts 238°
2026-04-26 16:19 31.44628 -66.31596 40137 ft 364 kts 238°
2026-04-26 16:19 31.41749 -66.36585 40135 ft 375 kts 238°
2026-04-26 16:20 31.40287 -66.39117 40138 ft 375 kts 238°
2026-04-26 16:20 31.35933 -66.46642 40134 ft 370 kts 238°
2026-04-26 16:21 31.33049 -66.51622 40132 ft 368 kts 238°
2026-04-26 16:21 31.30179 -66.56571 40126 ft 367 kts 238°
2026-04-26 16:22 31.27319 -66.61497 40128 ft 365 kts 238°
2026-04-26 16:22 31.24480 -66.66382 40124 ft 365 kts 238°
2026-04-26 16:23 31.21622 -66.71291 40117 ft 364 kts 238°
2026-04-26 16:23 31.18792 -66.76145 40119 ft 363 kts 238°
2026-04-26 16:24 31.15940 -66.81032 40110 ft 363 kts 238°